Simultaneous Nadir Overpasses (SNOs) Predictions

Prediction of SNOs between NPP and GCOM-C Satellite Orbit:

Table of predicted SNOs for the next 14.0 days since TLE Epoch: 4/23/2022
Index Date (NPP) Time (NPP) Lat,Lon (NPP) SZA (NPP ) Date (GCOM-C) Time (GCOM-C) Lat,Lon (GCOM-C) SZA (GCOM-C ) Distance(km) Time Diff (sec)
1 04/29/2022 11:04:57 -69.46,-168.98 125.18 04/29/2022 11:06:05 -69.42,-166.91 125.23 81.02 68
2 04/29/2022 11:55:32 68.86, -0.84 54.20 04/29/2022 11:56:44 68.77, -0.41 54.11 19.51 72
3 04/29/2022 12:46:11 -68.61, 166.81 126.06 04/29/2022 12:47:17 -68.61, 166.75 126.06 2.21 66
4 04/29/2022 13:36:57 68.60, -25.86 53.92 04/29/2022 13:37:44 68.61, -25.86 53.93 1.40 47
5 04/29/2022 14:27:40 -68.57, 141.49 126.13 04/29/2022 14:28:15 -68.56, 141.44 126.14 2.38 35
6 04/29/2022 15:18:26 68.55, -51.18 53.85 04/29/2022 15:18:42 68.55, -51.17 53.85 0.24 16
7 04/29/2022 16:09:09 -68.52, 116.18 126.20 04/29/2022 16:09:13 -68.50, 116.13 126.22 3.02 4
8 04/29/2022 16:59:55 68.50, -76.49 53.78 04/29/2022 16:59:40 68.50, -76.49 53.77 0.99 15
9 04/29/2022 17:50:38 -68.48, 90.87 126.26 04/29/2022 17:50:10 -68.50, 90.89 126.24 2.74 28
10 04/29/2022 18:41:24 68.46,-101.81 53.71 04/29/2022 18:40:38 68.44,-101.79 53.69 2.18 46
11 04/29/2022 19:32:07 -68.43, 65.55 126.33 04/29/2022 19:31:08 -68.44, 65.58 126.32 1.90 59
12 04/29/2022 20:22:51 68.30,-126.98 53.53 04/29/2022 20:21:37 68.33,-127.17 53.56 8.37 74
13 04/29/2022 21:13:26 -67.85, 40.92 126.94 04/29/2022 21:12:15 -67.90, 39.66 126.88 52.79 71



Historial Predications of SNOs between NPP and GCOM-C
